Temperature
18 18 18 18 18 18 18 18 17 18 18 18 18 18 18 18 18 18 18 18 18 18 18 18 18 18 18 18 18 18 18 18 18 18 17 17 17 17 17 17 17 17 16
18 18 18 18 18 17 17 17 18 17 17 17 18 18 18 18 18 18 18 18 17 18 18 18 18 18 18 18 18 18 18 18 18 18 17 17 17 17 17 17 17 17 17
17 17 17 17 17 17 17 17 17 17 17 17 17 17 17 17 17 18 18 18 17 17 18 18 18 18 18 18 18 18 18 18 18 18 18 17 17 17 17 17 17 17 17
17 17 17 17 17 17 17 17 17 17 17 17 17 17 17 17 17 17 17 17 17 17 17 18 18 18 18 18 18 18 18 18 18 18 18 18 17 17 17 17 17 17 17
17 17 17 17 17 16 16 16 16 16 16 16 16 16 17 17 17 17 17 17 17 17 17 17 18 18 18 18 18 18 18 18 18 18 18 18 18 17 17 17 17 17 17
16 16 16 16 16 16 16 16 16 16 16 16 16 16 17 17 17 17 17 17 17 17 17 17 17 17 17 17 18 18 18 18 18 18 18 18 18 17 17 17 17 17 17
16 16 16 16 16 16 15 15 15 15 15 15 15 16 16 17 17 18 18 17 17 17 17 17 17 17 17 17 17 17 18 18 18 18 18 18 18 18 18 17 17 17 17
16 16 15 15 15 15 15 15 15 15 15 15 15 15 16 17 17 18 18 18 18 17 17 17 17 17 17 17 17 17 17 17 17 17 17 17 17 18 18 17 17 17 17
15 15 15 15 14 14 14 14 15 15 14 15 15 15 15 16 17 17 17 17 17 17 17 17 17 17 17 17 17 17 17 17 17 17 17 17 17 17 17 17 17 17 17
15 15 14 14 14 14 14 14 14 14 14 14 14 15 15 15 15 16 16 17 17 17 17 17 17 17 17 17 17 17 17 17 17 17 17 17 17 17 17 17 17 17 17
15 15 14 14 14 13 13 13 13 13 13 13 13 14 14 15 15 15 15 16 16 17 17 17 17 17 17 16 16 16 16 16 16 16 17 17 17 17 17 17 17 17 17
15 15 14 14 13 13 13 13 13 13 13 13 13 13 13 14 14 15 15 15 16 16 17 17 16 16 16 16 16 16 16 16 16 16 16 16 16 17 17 17 17 17 17
14 14 14 14 13 13 13 12 12 12 12 12 12 13 13 13 14 14 14 15 15 15 16 16 16 16 16 16 16 16 16 16 16 16 16 16 16 16 16 16 16 17 17
14 13 13 13 12 12 12 12 12 12 12 12 12 12 12 13 13 13 14 14 14 14 15 16 16 16 16 16 16 15 15 15 15 15 15 16 16 16 16 16 16 16 16
13 13 13 12 12 12 12 12 12 12 12 12 12 12 12 12 12 13 13 13 13 13 14 15 15 15 15 15 15 15 15 15 15 15 15 15 15 16 16 16 16 16 16
13 12 12 12 12 12 12 11 11 11 11 12 12 12 12 12 12 12 12 13 13 13 13 14 14 15 15 15 15 15 15 15 15 15 15 15 15 15 15 15 16 16 16
12 12 12 12 11 11 11 11 11 11 11 11 11 11 11 11 12 12 12 12 12 13 13 13 14 14 14 14 14 14 14 14 14 15 15 15 15 15 15 15 16 16 16
12 12 12 11 11 11 11 11 11 11 11 11 11 11 11 11 11 11 11 12 12 12 12 12 13 13 13 14 14 14 14 14 14 14 14 15 15 15 15 15 15 15 16
12 12 11 11 11 11 11 11 11 11 11 11 10 11 11 11 11 11 11 11 11 12 12 12 12 13 13 13 13 13 14 13 14 14 14 14 14 15 15 15 15 15 15
12 11 11 11 11 11 11 11 11 10 10 10 10 10 10 10 10 11 11 11 11 11 11 11 12 12 12 13 13 13 13 13 13 13 14 14 14 14 15 15 15 15 15
12 11 11 11 11 11 11 11 11 10 10 10 10 10 10 10 10 10 10 10 10 10 11 11 11 12 12 12 13 13 13 13 13 13 13 14 14 14 14 14 14 15 15
12 11 11 11 11 11 11 11 10 10 10 10 10 10 10 10 10 10 10 10 10 10 10 10 11 11 11 12 12 12 12 12 12 13 13 13 13 14 14 14 14 14 14
12 11 11 11 11 11 11 10 10 10 10 10 10 9 9 9 10 10 10 10 10 10 10 10 10 11 11 11 11 12 12 12 12 12 12 12 13 13 13 13 14 14 14
12 11 11 11 11 11 10 10 10 10 10 10 10 9 9 9 9 9 9 9 9 10 10 10 10 11 11 11 11 11 11 11 12 12 12 12 12 12 13 13 13 13 14
12 11 11 11 11 11 11 10 10 10 10 9 9 9 9 9 9 9 9 9 9 9 9 10 10 10 10 10 11 11 11 11 11 11 12 12 12 12 12 12 13 13 13
12 11 11 11 11 11 11 10 10 10 9 9 9 9 9 9 9 9 9 9 8 9 9 9 9 10 10 10 10 10 10 11 11 11 11 11 11 11 11 12 12 12 13
Wind_Speed
1 0 0 1 3 4 4 3 3 3 3 4 5 6 6 8 8 7 6 16 19 20 20 20 20 20 21 21 21 21 21 20 20 19 19 18 17 17 16 15 14 14 14
1 1 1 2 3 4 2 3 2 2 2 2 4 5 6 8 9 8 7 11 17 19 20 21 21 21 22 23 24 24 23 23 22 22 21 20 20 19 19 17 16 15 15
1 1 2 2 2 3 2 3 3 2 4 4 5 6 6 7 8 8 10 10 12 18 20 21 22 23 23 24 25 26 26 26 25 24 24 23 22 22 21 20 19 18 17
0 1 2 0 1 3 3 2 3 3 3 3 4 5 5 5 8 9 11 12 12 13 18 23 23 24 24 25 26 27 28 28 27 27 26 25 24 24 23 22 21 20 19
2 1 1 1 2 2 2 4 2 2 3 4 5 6 6 7 7 9 8 11 14 15 15 20 26 27 27 27 27 28 29 29 29 29 28 27 26 25 25 25 24 23 22
2 2 2 1 2 2 2 2 4 4 4 5 8 7 5 6 6 7 8 8 11 15 16 16 19 24 28 28 29 29 30 31 31 31 30 29 28 27 27 26 26 25 24
2 1 2 2 3 3 3 4 3 4 5 4 5 6 6 8 8 7 7 6 7 9 11 12 13 16 18 28 30 30 30 31 32 32 32 31 31 30 29 28 27 27 26
1 3 2 3 4 4 5 4 3 3 5 4 4 4 5 5 5 6 5 6 6 3 4 8 10 12 14 15 22 29 30 31 32 33 33 33 32 32 31 30 29 29 28
2 3 2 3 4 5 5 4 4 4 4 5 4 4 4 4 4 4 4 3 4 4 4 3 7 11 14 15 16 25 31 32 32 33 33 33 33 32 32 31 31 30 29
3 3 3 3 3 4 6 7 4 4 4 5 5 5 5 4 3 4 5 4 3 4 5 5 4 6 11 12 14 17 25 31 32 33 33 33 33 32 32 32 31 30 30
4 4 3 1 2 3 5 6 6 5 5 5 5 5 5 4 5 5 6 5 4 4 4 5 4 3 6 9 11 15 19 25 29 30 31 32 32 33 33 32 32 31 30
3 3 2 1 2 3 5 5 6 7 6 6 5 5 6 5 5 5 5 6 5 5 4 3 4 3 4 6 9 12 15 20 24 26 28 30 32 32 33 33 32 32 31
4 4 5 4 4 4 5 6 6 7 7 7 6 6 6 6 5 5 5 5 6 5 5 4 4 3 4 5 6 7 11 15 19 24 26 27 29 31 32 32 32 32 32
4 4 4 4 5 5 7 6 6 7 7 6 8 7 6 6 6 6 5 5 6 6 6 6 3 3 2 3 5 6 7 12 16 19 22 23 25 28 30 31 31 31 31
6 6 6 6 6 6 7 7 6 7 7 7 7 7 6 6 6 6 5 5 5 6 7 6 3 2 2 3 5 5 6 10 14 17 19 21 23 26 27 29 30 29 29
6 6 6 7 7 7 7 7 7 7 7 7 7 8 7 6 6 6 6 5 5 6 7 6 5 3 1 2 5 5 5 8 12 16 18 19 21 23 26 28 29 29 28
6 6 7 7 7 7 7 7 7 8 8 8 8 8 8 8 6 6 6 6 6 6 8 7 6 4 3 3 2 4 5 6 8 14 17 18 19 21 24 26 27 27 27
6 6 7 7 8 8 7 7 8 8 8 8 8 8 8 8 8 7 7 8 7 7 7 8 7 5 6 5 4 4 3 5 5 10 15 17 18 18 20 22 23 25 26
6 6 7 7 7 7 7 7 7 8 8 8 8 8 8 8 8 7 7 8 7 8 7 7 7 6 5 5 5 4 4 3 4 6 10 13 15 17 18 19 21 22 23
7 7 7 7 7 8 8 8 7 7 7 7 8 8 9 9 9 8 8 8 8 8 7 7 7 6 5 5 4 4 4 3 4 4 5 7 9 12 14 17 19 20 21
8 7 7 7 7 8 8 5 5 8 7 7 8 8 10 11 11 9 10 7 6 5 6 6 6 6 6 5 5 4 4 3 3 3 3 4 4 5 7 12 15 17 18
6 7 7 8 9 10 4 3 4 7 7 8 9 9 10 11 13 14 15 14 11 9 7 7 6 7 7 6 4 4 4 3 3 3 4 4 4 4 4 6 11 15 16
7 7 8 8 9 9 9 9 9 7 8 9 9 9 11 13 10 8 10 13 14 16 15 10 10 9 8 6 5 4 4 4 3 2 3 3 3 4 2 4 11 14 15
7 7 8 9 9 10 9 10 10 8 10 10 11 11 11 11 12 9 8 8 8 9 12 12 11 11 11 7 6 6 5 3 2 2 3 2 2 2 3 3 8 12 14
7 8 8 9 9 9 9 10 10 7 9 10 11 11 10 9 10 9 8 8 9 9 12 14 15 14 14 11 7 4 4 4 4 4 4 3 3 3 3 2 4 8 12
7 9 9 8 9 9 8 10 11 7 9 9 8 8 10 9 9 8 7 8 9 9 9 9 8 11 11 11 12 9 7 6 4 4 5 4 4 4 3 2 3 5 7
Wind_Direction
232 301 307 279 260 236 214 223 231 241 245 249 252 249 258 262 269 275 206 189 191 190 188 190 196 202 204 204 203 202 200 200 197 195 192 190 187 185 183 183 181 179 178
56 345 271 246 258 252 215 216 222 230 234 248 263 262 258 264 265 260 246 210 203 202 200 199 203 208 210 209 208 206 204 203 201 199 197 195 193 191 189 189 188 186 186
38 301 274 260 282 282 253 240 248 244 242 239 242 251 252 253 257 254 248 236 220 213 213 211 210 212 215 214 212 210 207 205 203 201 200 200 198 196 194 194 193 192 192
347 283 279 284 303 287 263 242 233 244 253 255 251 251 246 241 245 244 242 237 233 231 223 220 217 217 219 220 218 215 212 209 206 204 203 203 202 200 198 197 197 196 197
334 303 309 346 287 293 293 299 317 301 288 283 274 253 239 239 237 243 233 231 230 230 228 223 221 220 221 224 223 219 215 212 209 206 204 205 205 204 202 201 200 200 200
12 349 307 10 323 289 298 309 300 284 276 270 276 281 265 252 242 239 235 231 228 227 227 228 219 222 222 223 224 222 219 215 212 209 207 206 206 206 205 204 203 202 202
13 324 322 333 306 301 304 289 287 295 281 263 267 274 265 250 241 234 229 231 232 230 227 224 214 212 218 223 224 223 221 219 215 212 210 208 207 206 206 206 205 204 204
354 303 33 335 326 325 299 284 282 282 293 292 280 287 288 276 262 250 224 220 225 224 233 236 224 215 218 216 221 224 225 222 218 215 212 210 209 207 206 207 207 206 206
339 318 322 314 327 315 311 334 304 290 288 295 280 269 283 287 315 297 277 248 220 217 229 235 230 222 221 223 217 220 224 223 221 218 215 212 210 208 207 208 208 208 208
298 292 292 301 321 321 319 311 336 338 307 293 290 273 260 274 291 304 305 292 258 234 230 240 249 225 222 224 225 223 222 221 221 220 217 214 211 209 209 209 209 210 210
270 260 254 264 305 299 305 318 318 309 303 295 298 302 294 282 253 252 278 291 292 266 238 229 236 231 230 220 223 230 226 220 219 219 219 216 214 213 212 211 212 212 213
302 303 300 27 311 305 312 310 302 293 280 280 285 289 291 284 271 258 263 273 276 274 265 242 229 225 229 228 230 233 224 218 215 216 219 218 217 215 214 214 214 215 215
324 15 12 2 331 315 301 289 287 281 280 280 276 268 273 280 283 276 276 281 286 287 281 262 223 195 219 219 221 231 223 218 218 217 219 219 218 217 214 213 215 215 216
322 342 329 306 295 292 292 297 297 284 277 274 273 269 270 275 277 275 269 274 283 284 276 265 238 190 187 203 197 213 223 219 220 219 220 221 220 218 215 212 213 215 215
313 335 333 316 301 290 284 284 279 281 281 275 273 272 261 264 270 270 266 258 260 271 276 277 261 207 190 192 177 209 223 221 219 220 221 222 222 219 215 212 211 212 212
296 298 297 298 296 291 284 279 278 277 279 274 265 265 268 264 267 268 262 256 247 252 265 280 282 257 234 245 188 208 225 226 222 220 220 221 222 220 216 213 212 211 211
304 298 293 291 290 287 284 282 279 277 276 276 277 272 266 263 266 274 275 268 256 248 256 265 272 274 240 248 221 223 234 233 227 221 218 219 221 220 219 215 212 211 210
299 295 292 291 289 290 290 289 289 290 286 283 280 278 277 274 264 260 265 271 268 262 257 263 268 269 257 243 232 227 238 245 235 220 211 213 215 218 218 214 211 209 209
295 292 289 289 290 290 286 282 278 279 280 280 281 280 278 276 274 264 261 263 265 267 258 258 262 254 255 243 236 234 235 233 238 218 202 204 208 211 212 211 210 209 208
293 288 287 285 284 284 281 278 279 278 281 283 282 280 278 274 272 271 268 258 259 265 270 267 265 261 252 240 222 225 233 224 229 217 193 187 191 200 208 208 207 208 208
291 292 292 288 285 283 279 286 288 286 293 294 289 283 278 275 270 266 267 264 269 270 271 269 267 266 256 239 225 216 227 225 228 212 181 177 173 185 196 200 199 199 200
288 287 285 287 287 289 301 294 277 295 292 288 286 284 283 273 263 250 246 248 247 252 256 260 265 265 269 268 253 235 219 219 231 203 191 193 177 182 184 183 189 188 191
288 284 282 283 284 283 269 252 246 265 276 277 278 279 282 282 291 278 257 247 244 243 240 244 255 259 265 269 267 250 240 233 232 196 175 203 176 170 159 162 173 178 182
286 285 284 283 282 282 267 245 241 252 269 270 269 268 267 271 278 282 281 273 262 253 242 236 239 246 252 257 254 244 233 228 232 200 178 192 170 148 127 125 161 169 173
286 284 285 281 280 280 262 242 234 262 267 271 271 271 269 268 268 269 267 267 267 264 261 247 229 232 233 234 232 229 213 207 227 215 190 177 160 140 128 126 134 156 164
283 285 285 285 285 284 265 237 225 254 269 277 279 274 270 267 268 255 250 260 267 269 276 280 256 241 235 229 218 215 215 211 213 212 191 171 163 151 143 137 143 145 148
Height
1546 1546 1546 1547 1548 1549 1549 1550 1550 1551 1552 1553 1553 1554 1555 1557 1558 1559 1559 1559 1561 1562 1564 1566 1569 1571 1573 1575 1577 1579 1581 1584 1586 1588 1591 1593 1595 1598 1600 1602 1604 1606 1608
1544 1544 1545 1546 1546 1547 1548 1548 1548 1548 1549 1549 1550 1551 1552 1553 1554 1555 1556 1556 1557 1559 1561 1562 1564 1567 1569 1572 1574 1576 1578 1581 1583 1585 1588 1591 1593 1595 1598 1600 1602 1604 1607
1542 1543 1544 1544 1544 1545 1545 1545 1545 1546 1546 1547 1548 1548 1549 1549 1550 1550 1551 1552 1553 1554 1556 1557 1560 1562 1565 1567 1570 1572 1575 1577 1579 1582 1585 1587 1590 1593 1595 1598 1600 1603 1605
1541 1542 1542 1542 1542 1542 1543 1543 1543 1543 1543 1543 1544 1544 1545 1545 1545 1546 1546 1547 1548 1549 1550 1552 1555 1557 1559 1562 1564 1567 1570 1573 1575 1578 1581 1584 1586 1589 1592 1595 1598 1600 1603
1540 1541 1540 1540 1540 1540 1540 1540 1540 1540 1540 1540 1540 1540 1541 1541 1541 1541 1542 1542 1543 1544 1545 1547 1549 1551 1554 1556 1559 1562 1565 1568 1571 1573 1576 1579 1582 1585 1588 1591 1594 1597 1600
1539 1539 1539 1538 1538 1538 1537 1537 1537 1536 1536 1537 1537 1537 1537 1536 1537 1537 1537 1538 1539 1540 1541 1542 1543 1545 1547 1550 1553 1556 1558 1562 1565 1568 1571 1574 1577 1580 1584 1587 1590 1593 1596
1537 1537 1537 1536 1536 1535 1535 1534 1534 1533 1533 1534 1534 1533 1533 1533 1532 1533 1533 1534 1535 1536 1537 1538 1538 1540 1541 1543 1546 1549 1552 1555 1558 1562 1565 1568 1572 1575 1579 1582 1585 1589 1592
1535 1535 1534 1533 1533 1533 1532 1532 1531 1530 1530 1531 1531 1531 1530 1530 1528 1529 1529 1529 1530 1532 1533 1533 1534 1535 1536 1538 1539 1542 1545 1548 1551 1554 1558 1562 1565 1569 1573 1577 1580 1584 1587
1532 1532 1531 1531 1530 1530 1530 1529 1529 1528 1528 1528 1528 1529 1528 1526 1526 1525 1525 1526 1526 1527 1528 1529 1530 1530 1531 1533 1534 1535 1538 1540 1543 1547 1551 1555 1559 1562 1567 1571 1574 1578 1582
1530 1530 1529 1528 1527 1527 1526 1526 1527 1525 1525 1525 1525 1526 1526 1525 1525 1523 1523 1523 1523 1523 1524 1525 1525 1526 1526 1527 1528 1529 1531 1533 1536 1539 1543 1547 1551 1555 1560 1564 1568 1572 1576
1528 1527 1526 1525 1524 1523 1523 1523 1522 1522 1522 1522 1522 1522 1522 1522 1522 1522 1520 1520 1520 1520 1520 1520 1521 1521 1522 1521 1522 1523 1524 1526 1529 1532 1535 1539 1543 1548 1552 1556 1561 1565 1569
1525 1525 1524 1522 1521 1520 1520 1519 1518 1518 1518 1518 1518 1518 1518 1518 1518 1518 1518 1517 1517 1517 1517 1516 1516 1517 1517 1517 1517 1517 1518 1519 1521 1524 1528 1531 1535 1540 1544 1549 1553 1558 1562
1523 1522 1520 1519 1518 1517 1516 1516 1515 1514 1514 1514 1513 1513 1514 1514 1514 1515 1514 1514 1513 1513 1513 1513 1512 1512 1512 1512 1512 1512 1512 1513 1515 1517 1520 1524 1528 1532 1536 1541 1545 1550 1554
1520 1519 1517 1516 1515 1514 1513 1512 1511 1510 1510 1509 1509 1509 1509 1509 1510 1510 1510 1510 1509 1509 1509 1508 1508 1507 1507 1507 1507 1507 1506 1507 1508 1510 1513 1516 1520 1524 1528 1533 1537 1542 1547
1517 1516 1514 1512 1511 1510 1509 1508 1507 1506 1506 1505 1505 1504 1504 1504 1505 1505 1505 1506 1506 1505 1504 1504 1504 1503 1503 1503 1502 1502 1502 1502 1503 1505 1507 1510 1513 1516 1520 1525 1530 1534 1539
1513 1511 1510 1508 1507 1506 1505 1504 1503 1502 1502 1501 1500 1500 1499 1499 1499 1500 1500 1500 1501 1501 1500 1499 1499 1499 1499 1499 1498 1498 1497 1497 1498 1499 1501 1503 1506 1509 1513 1517 1522 1527 1532
1509 1507 1506 1505 1503 1502 1501 1500 1499 1498 1497 1496 1496 1495 1495 1494 1494 1494 1495 1495 1495 1496 1495 1494 1495 1495 1494 1494 1494 1493 1493 1493 1493 1493 1495 1497 1499 1503 1506 1510 1515 1519 1524
1506 1504 1502 1501 1499 1498 1497 1496 1494 1493 1492 1491 1490 1490 1489 1489 1489 1489 1489 1489 1489 1490 1490 1489 1490 1490 1490 1490 1489 1489 1488 1488 1488 1488 1489 1491 1493 1496 1499 1503 1507 1512 1517
1502 1500 1499 1497 1495 1494 1492 1491 1490 1488 1487 1486 1485 1485 1484 1483 1483 1483 1483 1483 1483 1484 1484 1484 1484 1484 1485 1485 1485 1484 1484 1484 1484 1483 1484 1485 1487 1490 1493 1496 1500 1505 1510
1499 1497 1495 1493 1491 1490 1488 1487 1485 1484 1483 1481 1480 1479 1478 1478 1477 1477 1477 1477 1478 1478 1478 1478 1478 1479 1479 1480 1480 1480 1479 1479 1479 1479 1479 1480 1482 1484 1487 1490 1494 1498 1503
1496 1494 1491 1489 1488 1486 1484 1483 1481 1480 1478 1476 1475 1473 1472 1472 1471 1471 1471 1471 1472 1472 1472 1472 1472 1473 1474 1475 1475 1475 1475 1475 1475 1475 1475 1476 1477 1479 1481 1484 1488 1492 1496
1492 1490 1487 1485 1483 1482 1481 1479 1477 1475 1473 1471 1469 1467 1466 1465 1465 1465 1465 1465 1466 1466 1466 1467 1467 1467 1468 1469 1470 1470 1470 1471 1471 1471 1471 1472 1473 1475 1477 1480 1483 1486 1490
1488 1486 1483 1481 1479 1477 1475 1473 1471 1469 1467 1465 1463 1462 1461 1460 1460 1459 1459 1458 1459 1459 1460 1460 1460 1461 1462 1464 1465 1465 1466 1466 1466 1467 1468 1468 1469 1471 1473 1475 1478 1482 1485
1484 1481 1479 1477 1474 1472 1471 1469 1466 1464 1462 1460 1458 1456 1455 1454 1454 1453 1452 1452 1452 1452 1453 1453 1453 1454 1456 1458 1459 1461 1461 1462 1463 1463 1464 1465 1465 1467 1469 1472 1474 1477 1481
1480 1477 1475 1473 1470 1468 1466 1463 1461 1459 1456 1454 1453 1452 1450 1449 1448 1447 1446 1445 1445 1445 1446 1446 1447 1447 1449 1451 1453 1455 1456 1457 1458 1459 1460 1461 1462 1463 1465 1468 1470 1474 1477
1476 1473 1470 1468 1465 1463 1461 1458 1456 1454 1452 1450 1448 1447 1445 1444 1442 1441 1440 1439 1438 1438 1439 1440 1440 1441 1442 1444 1446 1448 1450 1452 1453 1454 1456 1457 1458 1460 1462 1464 1467 1470 1473